• In Hungary
  • List of Countries
  • For 7 days
  • Water Temperature
  • Satellite Maps
  • Weather Map
  • News
  • Weather Widgets
  • user-avatar
    Login

    Hourly Weather Brussels

    Today, 18 October, Wednesday

    Time Temperature Precipitation Wind Pressure Humidity
    00:00 +14°C° 0 mm 2 mps 759 mmHg 86%
    01:00 +14°C° 0 mm 2 mps 758 mmHg 87%
    02:00 +13°C° 0 mm 2 mps 758 mmHg 88%
    03:00 +13°C° 0 mm 2 mps 758 mmHg 89%
    04:00 +13°C° 0 mm 2 mps 757 mmHg 88%
    05:00 +13°C° 0 mm 2 mps 757 mmHg 88%
    06:00 +12°C° 0 mm 2 mps 757 mmHg 87%
    07:00 +14°C° 0 mm 2 mps 757 mmHg 81%
    08:00 +14°C° 0 mm 3 mps 757 mmHg 76%
    09:00 +16°C° 0 mm 3 mps 757 mmHg 70%
    10:00 +18°C° 0 mm 3 mps 756 mmHg 68%
    11:00 +19°C° 0 mm 3 mps 756 mmHg 66%
    12:00 +21°C° 0 mm 3 mps 756 mmHg 64%
    13:00 +21°C° 0 mm 3 mps 756 mmHg 66%
    14:00 +21°C° 0 mm 2 mps 756 mmHg 67%
    15:00 +21°C° 0 mm 2 mps 755 mmHg 69%
    16:00 +20°C° 0 mm 2 mps 755 mmHg 75%
    17:00 +18°C° 0 mm 2 mps 755 mmHg 80%
    18:00 +17°C° 0 mm 2 mps 755 mmHg 86%
    19:00 +16°C° 0 mm 2 mps 755 mmHg 86%
    20:00 +16°C° 0 mm 2 mps 755 mmHg 87%
    21:00 +15°C° 0 mm 2 mps 755 mmHg 87%
    22:00 +15°C° 0 mm 2 mps 755 mmHg 86%
    23:00 +14°C° 0 mm 2 mps 755 mmHg 86%

    Tomorrow, 19 October, Thursday

    Time Temperature Precipitation Wind Pressure Humidity
    00:00 +14°C° 0 mm 2 mps 755 mmHg 85%
    01:00 +14°C° 0 mm 2 mps 755 mmHg 86%
    02:00 +13°C° 0 mm 2 mps 755 mmHg 87%
    03:00 +13°C° 0 mm 2 mps 754 mmHg 88%
    04:00 +13°C° 0 mm 2 mps 754 mmHg 88%
    05:00 +12°C° 0 mm 3 mps 754 mmHg 88%
    06:00 +11°C° 0 mm 3 mps 754 mmHg 88%
    07:00 +13°C° 0 mm 3 mps 754 mmHg 82%
    08:00 +15°C° 0 mm 4 mps 754 mmHg 76%
    09:00 +17°C° 0 mm 5 mps 754 mmHg 70%
    10:00 +19°C° 0 mm 5 mps 753 mmHg 67%
    11:00 +20°C° 0 mm 5 mps 753 mmHg 64%
    12:00 +21°C° 0 mm 6 mps 753 mmHg 61%
    13:00 +21°C° 0 mm 5 mps 753 mmHg 62%
    14:00 +21°C° 0 mm 5 mps 752 mmHg 62%
    15:00 +21°C° 0 mm 5 mps 752 mmHg 63%
    16:00 +20°C° 0 mm 5 mps 752 mmHg 66%
    17:00 +19°C° 0 mm 5 mps 752 mmHg 68%
    18:00 +17°C° 0 mm 5 mps 752 mmHg 71%
    19:00 +16°C° 0 mm 5 mps 753 mmHg 74%
    20:00 +16°C° 0 mm 5 mps 753 mmHg 77%
    21:00 +15°C° 0 mm 4 mps 753 mmHg 80%
    22:00 +15°C° 0 mm 4 mps 754 mmHg 81%
    23:00 +14°C° 0 mm 4 mps 754 mmHg 83%

    Day after tomorrow, 20 October, Friday

    Time Temperature Precipitation Wind Pressure Humidity
    00:00 +14°C° 0 mm 4 mps 754 mmHg 84%
    01:00 +14°C° 0 mm 4 mps 754 mmHg 83%
    02:00 +14°C° 0 mm 5 mps 753 mmHg 83%
    03:00 +14°C° 0 mm 5 mps 753 mmHg 82%
    04:00 +14°C° 0 mm 5 mps 753 mmHg 82%
    05:00 +14°C° 0 mm 5 mps 753 mmHg 83%
    06:00 +14°C° 0 mm 6 mps 753 mmHg 83%
    07:00 +14°C° 0.4 mm 6 mps 753 mmHg 83%
    08:00 +14°C° 0.4 mm 7 mps 753 mmHg 83%
    09:00 +14°C° 0.4 mm 7 mps 753 mmHg 83%
    10:00 +15°C° 0.1 mm 7 mps 754 mmHg 79%
    11:00 +16°C° 0.1 mm 7 mps 754 mmHg 75%
    12:00 +16°C° 0.1 mm 8 mps 754 mmHg 70%
    13:00 +16°C° 0 mm 7 mps 754 mmHg 69%
    14:00 +16°C° 0 mm 6 mps 754 mmHg 68%
    15:00 +17°C° 0 mm 5 mps 754 mmHg 67%
    16:00 +15°C° 0 mm 5 mps 755 mmHg 70%
    17:00 +14°C° 0 mm 4 mps 755 mmHg 74%
    18:00 +13°C° 0 mm 4 mps 755 mmHg 77%
    19:00 +13°C° 0 mm 3 mps 755 mmHg 79%
    20:00 +12°C° 0 mm 3 mps 755 mmHg 81%
    21:00 +12°C° 0 mm 3 mps 755 mmHg 83%
    22:00 +12°C° 0 mm 4 mps 755 mmHg 83%
    23:00 +13°C° 0 mm 4 mps 755 mmHg 83%

    21 October, Saturday

    Time Temperature Precipitation Wind Pressure Humidity
    00:00 +13°C° 0 mm 4 mps 754 mmHg 84%
    01:00 +14°C° 0 mm 5 mps 754 mmHg 84%
    02:00 +14°C° 0 mm 5 mps 754 mmHg 84%
    03:00 +14°C° 0 mm 6 mps 753 mmHg 84%
    04:00 +15°C° 0.1 mm 6 mps 753 mmHg 83%
    05:00 +15°C° 0.1 mm 6 mps 753 mmHg 81%
    06:00 +15°C° 0.1 mm 7 mps 753 mmHg 80%
    07:00 +15°C° 0.4 mm 7 mps 753 mmHg 82%
    08:00 +15°C° 0.4 mm 6 mps 753 mmHg 85%
    09:00 +15°C° 0.4 mm 6 mps 753 mmHg 87%
    10:00 +15°C° 0.1 mm 7 mps 753 mmHg 81%
    11:00 +15°C° 0.1 mm 7 mps 754 mmHg 75%
    12:00 +15°C° 0.1 mm 8 mps 754 mmHg 70%
    13:00 +16°C° 0 mm 8 mps 754 mmHg 67%
    14:00 +16°C° 0 mm 7 mps 753 mmHg 63%
    15:00 +16°C° 0 mm 7 mps 753 mmHg 60%
    16:00 +15°C° 0 mm 7 mps 754 mmHg 60%
    17:00 +14°C° 0 mm 7 mps 754 mmHg 60%
    18:00 +12°C° 0 mm 7 mps 754 mmHg 60%
    19:00 +12°C° 0 mm 8 mps 754 mmHg 60%
    20:00 +12°C° 0 mm 8 mps 754 mmHg 60%
    21:00 +12°C° 0 mm 8 mps 754 mmHg 60%
    22:00 +11°C° 0 mm 8 mps 754 mmHg 62%
    23:00 +11°C° 0 mm 8 mps 755 mmHg 65%

    22 October, Sunday

    Time Temperature Precipitation Wind Pressure Humidity
    00:00 +10°C° 0 mm 8 mps 755 mmHg 68%
    01:00 +10°C° 0 mm 8 mps 755 mmHg 70%
    02:00 +10°C° 0 mm 8 mps 755 mmHg 72%
    03:00 +9°C° 0 mm 7 mps 755 mmHg 75%
    04:00 +9°C° 0 mm 7 mps 755 mmHg 75%
    05:00 +9°C° 0 mm 7 mps 756 mmHg 74%
    06:00 +9°C° 0 mm 7 mps 756 mmHg 74%
    07:00 +10°C° 0.1 mm 7 mps 757 mmHg 73%
    08:00 +10°C° 0.1 mm 8 mps 757 mmHg 72%
    09:00 +11°C° 0.1 mm 8 mps 758 mmHg 70%
    10:00 +11°C° 0.1 mm 8 mps 758 mmHg 66%
    11:00 +12°C° 0.1 mm 8 mps 759 mmHg 62%
    12:00 +12°C° 0.1 mm 8 mps 759 mmHg 58%
    13:00 +12°C° 0 mm 7 mps 760 mmHg 57%
    14:00 +13°C° 0 mm 6 mps 760 mmHg 57%
    15:00 +13°C° 0 mm 5 mps 760 mmHg 56%
    16:00 +12°C° 0.1 mm 5 mps 761 mmHg 60%
    17:00 +10°C° 0.1 mm 5 mps 761 mmHg 65%
    18:00 +10°C° 0.1 mm 4 mps 762 mmHg 70%
    19:00 +10°C° 0.1 mm 4 mps 762 mmHg 73%
    20:00 +10°C° 0.1 mm 4 mps 762 mmHg 77%
    21:00 +10°C° 0.1 mm 4 mps 763 mmHg 80%
    22:00 +8°C° 0 mm 4 mps 763 mmHg 82%
    23:00 +8°C° 0 mm 4 mps 763 mmHg 84%

    23 October, Monday

    Time Temperature Precipitation Wind Pressure Humidity
    00:00 +8°C° 0 mm 4 mps 763 mmHg 85%
    01:00 +8°C° 0 mm 5 mps 763 mmHg 86%
    02:00 +8°C° 0 mm 5 mps 763 mmHg 86%
    03:00 +8°C° 0 mm 6 mps 763 mmHg 87%
    04:00 +8°C° 0.1 mm 6 mps 763 mmHg 86%
    05:00 +8°C° 0.1 mm 6 mps 763 mmHg 86%
    06:00 +9°C° 0.1 mm 6 mps 763 mmHg 86%
    07:00 +9°C° 0.7 mm 6 mps 763 mmHg 85%
    08:00 +9°C° 0.7 mm 7 mps 763 mmHg 85%
    09:00 +9°C° 0.7 mm 7 mps 763 mmHg 85%
    10:00 +10°C° 0.1 mm 7 mps 763 mmHg 83%
    11:00 +11°C° 0.1 mm 7 mps 762 mmHg 82%
    12:00 +11°C° 0.1 mm 7 mps 762 mmHg 81%
    13:00 +12°C° 0 mm 7 mps 762 mmHg 80%
    14:00 +13°C° 0 mm 6 mps 762 mmHg 79%
    15:00 +14°C° 0 mm 6 mps 761 mmHg 78%
    16:00 +13°C° 0 mm 6 mps 761 mmHg 79%
    17:00 +13°C° 0 mm 6 mps 761 mmHg 79%
    18:00 +13°C° 0 mm 6 mps 761 mmHg 80%
    19:00 +13°C° 0 mm 6 mps 761 mmHg 80%
    20:00 +13°C° 0 mm 6 mps 761 mmHg 80%
    21:00 +11°C° 0 mm 6 mps 761 mmHg 81%
    22:00 +11°C° 0 mm 6 mps 761 mmHg 82%
    23:00 +11°C° 0 mm 6 mps 761 mmHg 83%
    Show more